FW5461 Weather Reports


time (UTC)temp
C
wind
direction
speed
KPH
gust
KPH
rain 1hr
cm
rain 24hr
cm
rain mn
cm
humidity
%
barometer
mb
20260507034045 11 360 0.0 4.8 0.00 0.79 0.79 83 1010.4
20260507033547 11 360 1.6 8.0 0.00 0.79 0.79 83 1010.5
20260507033045 11 360 1.6 8.0 0.00 0.79 0.79 83 1010.5
20260507032545 11 360 0.0 8.0 0.00 0.79 0.79 83 1010.5
20260507032044 11 360 3.2 8.0 0.00 0.79 0.79 83 1010.7
20260507031545 11 360 0.0 9.7 0.00 0.79 0.79 83 1010.5
20260507031044 11 360 1.6 9.7 0.00 0.79 0.79 83 1010.6
20260507030544 11 360 3.2 9.7 0.00 0.79 0.79 84 1010.6
20260507030043 11 360 0.0 0.0 0.00 0.79 0.79 84 1010.5
20260507025542 11 360 0.0 0.0 0.00 0.79 0.79 84 1010.3
20260507025042 11 360 0.0 0.0 0.00 0.79 0.79 84 1010.3
20260507024543 11 360 0.0 4.8 0.00 0.79 0.79 84 1010.1
20260507024042 11 360 0.0 6.4 0.00 0.79 0.79 84 1010.0
20260507023541 11 360 1.6 12.9 0.00 0.79 0.79 84 1010.1
20260507023043 11 360 6.4 17.7 0.03 0.79 0.79 84 1010.2
20260507022541 11 360 1.6 17.7 0.03 0.79 0.79 84 1010.1
20260507022041 11 360 3.2 14.5 0.03 0.79 0.79 84 1010.1
20260507021543 11 360 6.4 14.5 0.03 0.79 0.79 84 1010.1
20260507021039 11 360 6.4 19.3 0.03 0.79 0.79 84 1010.1
20260507020539 11 360 9.7 24.1 0.03 0.79 0.79 84 1010.0
20260507020039 12 360 9.7 24.1 0.03 0.79 0.79 85 1009.9
20260507015540 12 360 12.9 24.1 0.03 0.79 0.79 85 1009.8
20260507015035 12 360 9.7 24.1 0.03 0.79 0.79 86 1009.6
20260507014534 12 360 3.2 20.9 0.03 0.79 0.79 87 1009.6
20260507014034 12 360 9.7 20.9 0.03 0.79 0.79 87 1009.5
20260507013531 12 360 8.0 20.9 0.08 0.79 0.79 88 1009.7
20260507013031 12 360 6.4 17.7 0.05 0.76 0.76 89 1009.7
20260507012534 12 360 3.2 19.3 0.05 0.76 0.76 89 1009.8
20260507012031 12 360 4.8 19.3 0.05 0.76 0.76 90 1009.7
20260507011537 12 360 3.2 16.1 0.05 0.76 0.76 90 1009.4
20260507011030 12 360 3.2 16.1 0.05 0.76 0.76 90 1009.3
20260507010532 12 360 3.2 20.9 0.05 0.76 0.76 90 1009.2
20260507010048 13 360 3.2 20.9 0.05 0.76 0.76 91 1009.1
20260507005529 13 360 4.8 17.7 0.05 0.76 0.76 91 1009.1
20260507005128 13 360 4.8 19.3 0.05 0.76 0.76 91 1009.1
20260507004532 13 360 8.0 29.0 0.05 0.76 0.76 91 1009.1
20260507004028 13 360 14.5 29.0 0.05 0.76 0.76 90 1008.9
20260507003528 15 360 8.0 17.7 0.00 0.71 0.71 92 1008.5
20260507003027 15 360 1.6 4.8 0.00 0.71 0.71 92 1008.1
20260507002527 15 360 1.6 6.4 0.00 0.71 0.71 92 1008.1
20260507002030 15 360 1.6 8.0 0.00 0.71 0.71 92 1008.1
20260507001527 15 360 3.2 8.0 0.00 0.71 0.71 92 1008.2
20260507001026 15 360 4.8 8.0 0.00 0.71 0.71 92 1008.2
20260507000526 15 360 3.2 6.4 0.00 0.71 0.71 92 1008.2
20260507000026 15 360 3.2 6.4 0.00 0.71 0.71 92 1008.2
20260506235527 15 360 1.6 4.8 0.00 0.71 0.71 92 1008.1
20260506235025 15 360 1.6 8.0 0.00 0.71 0.71 92 1008.1
20260506234528 15 360 3.2 14.5 0.00 0.71 0.71 91 1008.0
20260506234025 15 360 1.6 14.5 0.00 0.71 0.71 91 1007.9
20260506233525 15 360 4.8 12.9 0.00 0.71 0.71 91 1007.9
20260506233025 15 360 4.8 12.9 0.00 0.71 0.71 92 1007.8
20260506232526 15 360 4.8 14.5 0.00 0.71 0.71 92 1007.8
20260506232024 15 360 6.4 16.1 0.00 0.71 0.71 92 1007.7
20260506231524 15 360 4.8 16.1 0.00 0.71 0.71 91 1007.7
20260506231024 15 360 4.8 12.9 0.00 0.71 0.71 91 1007.8
20260506230523 15 360 4.8 12.9 0.00 0.71 0.71 91 1007.7
20260506230027 15 360 4.8 12.9 0.00 0.71 0.71 91 1007.6
20260506225523 15 360 6.4 12.9 0.00 0.71 0.71 91 1007.6
20260506225023 15 360 4.8 16.1 0.03 0.71 0.71 91 1007.5
20260506224523 15 360 6.4 16.1 0.03 0.71 0.71 91 1007.4
20260506224026 15 360 8.0 16.1 0.08 0.71 0.71 91 1007.3
20260506223522 15 360 4.8 16.1 0.10 0.71 0.71 91 1007.5
20260506223022 15 360 4.8 12.9 0.15 0.71 0.71 91 1007.4
20260506222524 15 360 6.4 14.5 0.18 0.71 0.71 91 1007.5
20260506222023 15 360 6.4 14.5 0.18 0.71 0.71 91 1007.4
20260506221521 15 360 6.4 17.7 0.20 0.71 0.71 91 1007.5
20260506221021 15 360 4.8 17.7 0.20 0.71 0.71 91 1007.5
20260506220520 15 360 6.4 16.1 0.23 0.71 0.71 91 1007.6
20260506220028 15 360 6.4 12.9 0.23 0.71 0.71 91 1007.6
20260506215524 15 360 6.4 14.5 0.23 0.71 0.71 91 1007.7
20260506215019 15 360 4.8 14.5 0.20 0.69 0.69 91 1007.6
20260506214520 15 360 6.4 16.1 0.20 0.69 0.69 91 1007.6
20260506214020 15 360 4.8 16.1 0.18 0.64 0.64 91 1007.5
20260506213518 15 360 4.8 12.9 0.15 0.61 0.61 90 1007.5
20260506213018 15 360 4.8 12.9 0.10 0.56 0.56 90 1007.7
20260506212520 15 360 4.8 9.7 0.10 0.53 0.53 90 1007.7
20260506212020 15 360 4.8 12.9 0.13 0.53 0.53 90 1007.7
20260506211518 15 360 4.8 12.9 0.13 0.51 0.51 90 1007.8
20260506211018 15 360 3.2 12.9 0.10 0.48 0.48 90 1007.8
20260506210518 15 360 4.8 12.9 0.13 0.48 0.48 90 1007.8
20260506210020 15 360 4.8 14.5 0.13 0.48 0.48 90 1007.9
20260506205515 15 360 6.4 14.5 0.15 0.48 0.48 90 1007.8
20260506205015 15 360 6.4 12.9 0.15 0.48 0.48 90 1008.0
20260506204515 15 360 3.2 9.7 0.18 0.48 0.48 90 1008.0
20260506204014 15 360 3.2 12.9 0.18 0.46 0.46 89 1007.9
20260506203515 15 360 6.4 12.9 0.20 0.46 0.46 89 1008.0
20260506203014 15 360 4.8 9.7 0.20 0.43 0.43 89 1008.0
20260506202516 15 360 1.6 16.1 0.20 0.43 0.43 89 1008.0
20260506202013 15 360 8.0 16.1 0.20 0.41 0.41 89 1008.2
20260506201525 15 360 4.8 14.5 0.18 0.38 0.38 89 1008.1
20260506201012 15 360 4.8 16.1 0.20 0.38 0.38 89 1008.1
20260506200511 15 360 6.4 17.7 0.18 0.36 0.36 89 1008.3
20260506200010 15 360 6.4 19.3 0.18 0.36 0.36 89 1008.3
20260506195510 15 360 8.0 19.3 0.18 0.33 0.33 89 1008.3
20260506195009 15 360 8.0 16.1 0.18 0.33 0.33 88 1008.4
20260506194509 15 360 4.8 16.1 0.15 0.30 0.30 88 1008.3
20260506194009 15 360 9.7 16.1 0.13 0.28 0.28 88 1008.4
20260506193508 15 360 4.8 22.5 0.13 0.25 0.25 88 1008.5
20260506193008 15 360 12.9 22.5 0.10 0.23 0.23 88 1008.6
20260506192508 15 360 8.0 20.9 0.13 0.23 0.23 88 1008.5
20260506192008 15 360 9.7 20.9 0.10 0.20 0.20 88 1008.5
20260506191507 15 360 9.7 24.1 0.13 0.20 0.20 88 1008.5
20260506191007 15 360 11.3 24.1 0.10 0.18 0.18 87 1008.6
20260506190505 15 360 9.7 24.1 0.10 0.18 0.18 87 1008.7
20260506190006 15 360 11.3 24.1 0.08 0.15 0.15 87 1008.8
20260506185504 15 360 14.5 24.1 0.08 0.15 0.15 87 1008.9
20260506185004 15 360 9.7 19.3 0.08 0.15 0.15 87 1009.0
20260506184514 15 360 6.4 19.3 0.08 0.15 0.15 87 1009.0
20260506184004 15 360 8.0 19.3 0.05 0.13 0.13 86 1008.9
20260506183504 15 360 4.8 25.7 0.05 0.13 0.13 86 1008.9
20260506183004 15 360 12.9 25.7 0.08 0.13 0.13 85 1008.9
20260506182504 15 360 12.9 24.1 0.05 0.10 0.10 85 1009.1
20260506182003 16 360 12.9 20.9 0.08 0.10 0.10 85 1009.0
20260506181503 16 360 9.7 22.5 0.08 0.08 0.08 85 1009.1
20260506181003 16 360 8.0 22.5 0.08 0.08 0.08 84 1009.2
20260506180503 16 360 6.4 19.3 0.08 0.08 0.08 84 1009.0
20260506180003 16 360 11.3 24.1 0.08 0.08 0.08 84 1008.9
20260506175501 16 360 11.3 24.1 0.08 0.08 0.08 84 1008.8
20260506175000 16 360 6.4 19.3 0.08 0.08 0.08 83 1008.9
20260506174601 16 360 9.7 20.9 0.08 0.08 0.08 83 1009.0
20260506174103 17 360 9.7 24.1 0.08 0.08 0.08 82 1009.2
20260506173603 17 360 6.4 24.1 0.08 0.08 0.08 82 1009.1
20260506173100 17 360 8.0 17.7 0.05 0.05 0.05 81 1009.0
20260506172600 17 360 9.7 17.7 0.05 0.05 0.05 80 1009.3
20260506172057 17 360 8.0 19.3 0.03 0.03 0.03 79 1009.6
20260506171607 18 360 9.7 20.9 0.00 0.00 0.00 78 1009.6
20260506171058 18 360 8.0 20.9 0.00 0.00 0.00 76 1009.8
20260506170556 18 360 9.7 20.9 0.00 0.00 0.00 75 1009.9
20260506170058 18 360 9.7 25.7 0.00 0.00 0.00 74 1009.9
20260506165555 19 360 12.9 25.7 0.00 0.00 0.00 72 1009.9
20260506165055 19 360 8.0 22.5 0.00 0.00 0.00 72 1009.8
20260506164555 19 360 12.9 24.1 0.00 0.00 0.00 70 1009.7
20260506164055 19 360 12.9 24.1 0.00 0.00 0.00 69 1009.7
20260506163554 20 360 8.0 22.5 0.00 0.00 0.00 69 1009.7
20260506163057 20 360 8.0 30.6 0.00 0.00 0.00 69 1009.6
20260506162554 20 360 14.5 30.6 0.00 0.00 0.00 67 1009.6
20260506162058 20 360 12.9 22.5 0.00 0.00 0.00 67 1009.6
20260506161554 20 360 6.4 22.5 0.00 0.00 0.00 67 1009.6
20260506161052 20 360 8.0 22.5 0.00 0.00 0.00 68 1009.7
20260506160551 20 360 9.7 20.9 0.00 0.00 0.00 68 1009.7
20260506160100 20 360 8.0 19.3 0.00 0.00 0.00 69 1009.9
20260506155548 19 360 4.8 12.9 0.00 0.00 0.00 70 1010.2
20260506155047 19 360 3.2 9.7 0.00 0.00 0.00 71 1010.2
20260506154546 19 360 3.2 9.7 0.00 0.00 0.00 71 1010.3
20260506154048 19 360 4.8 9.7 0.00 0.00 0.00 71 1010.3
20260506153545 19 360 1.6 8.0 0.00 0.00 0.00 71 1010.4
20260506153044 19 360 3.2 9.7 0.00 0.00 0.00 71 1010.4
20260506152544 18 360 6.4 14.5 0.00 0.00 0.00 72 1010.5
20260506152044 18 360 4.8 14.5 0.00 0.00 0.00 72 1010.6
20260506151543 18 360 4.8 12.9 0.00 0.00 0.00 72 1010.7
20260506151040 18 360 4.8 12.9 0.00 0.00 0.00 73 1010.8
20260506150539 18 360 4.8 12.9 0.00 0.00 0.00 73 1010.8
20260506150038 18 360 4.8 12.9 0.00 0.00 0.00 74 1010.8
20260506145537 18 360 3.2 12.9 0.00 0.00 0.00 74 1010.9
20260506145035 18 360 6.4 17.7 0.00 0.00 0.00 75 1010.9
20260506144548 17 360 8.0 17.7 0.00 0.00 0.00 75 1010.9
20260506144035 17 360 9.7 17.7 0.00 0.00 0.00 75 1010.9
20260506143534 17 360 6.4 16.1 0.00 0.00 0.00 75 1010.9
20260506143035 17 360 6.4 17.7 0.00 0.00 0.00 75 1010.9
20260506142532 17 360 4.8 17.7 0.00 0.00 0.00 76 1011.0
20260506142031 17 360 6.4 14.5 0.00 0.00 0.00 76 1010.9
20260506141530 17 360 8.0 14.5 0.00 0.00 0.00 76 1011.0
20260506141030 17 360 8.0 14.5 0.00 0.00 0.00 76 1010.9
20260506140530 17 360 9.7 20.9 0.00 0.00 0.00 76 1010.9
20260506140033 17 360 9.7 20.9 0.00 0.00 0.00 77 1010.9
20260506135530 17 360 3.2 17.7 0.00 0.00 0.00 77 1011.0
20260506135027 17 360 6.4 17.7 0.00 0.00 0.00 77 1010.8
20260506134528 16 360 8.0 16.1 0.00 0.00 0.00 78 1010.8
20260506134027 16 360 8.0 17.7 0.00 0.00 0.00 78 1010.7
20260506133523 16 360 8.0 20.9 0.00 0.00 0.00 79 1010.7
20260506133029 16 360 11.3 20.9 0.00 0.00 0.00 79 1010.7
20260506132521 16 360 9.7 17.7 0.00 0.00 0.00 79 1010.9
20260506132022 16 360 9.7 19.3 0.00 0.00 0.00 79 1010.8
20260506131522 16 360 8.0 19.3 0.00 0.00 0.00 79 1010.8
20260506131023 16 360 9.7 17.7 0.00 0.00 0.00 79 1010.8
20260506130520 16 360 4.8 16.1 0.00 0.00 0.00 80 1011.0
20260506130019 16 360 6.4 16.1 0.00 0.00 0.00 80 1011.0
20260506125518 16 360 6.4 16.1 0.00 0.00 0.00 80 1011.0
20260506125018 16 360 6.4 16.1 0.00 0.00 0.00 80 1010.8
20260506124521 15 360 1.6 16.1 0.00 0.00 0.00 81 1010.8
20260506124017 15 360 3.2 16.1 0.00 0.00 0.00 81 1011.1
20260506123515 15 360 3.2 9.7 0.00 0.00 0.00 82 1011.3
20260506123015 15 360 1.6 9.7 0.00 0.00 0.00 82 1011.4
20260506122515 15 360 4.8 9.7 0.00 0.00 0.00 82 1011.4
20260506122016 15 360 3.2 6.4 0.00 0.00 0.00 83 1011.4
20260506121513 15 360 0.0 14.5 0.00 0.00 0.00 83 1011.3
20260506121014 15 360 4.8 14.5 0.00 0.00 0.00 83 1011.4
20260506120513 15 360 6.4 12.9 0.00 0.00 0.00 83 1011.4
20260506120013 14 360 0.0 9.7 0.00 0.00 0.00 84 1011.3
20260506115511 14 360 3.2 9.7 0.00 0.00 0.00 84 1011.4
20260506115012 14 360 3.2 8.0 0.00 0.00 0.00 84 1011.5
20260506114529 14 360 1.6 6.4 0.00 0.00 0.00 84 1011.5
20260506114010 14 360 0.0 8.0 0.00 0.00 0.00 84 1011.4
20260506113509 14 360 3.2 8.0 0.00 0.00 0.00 84 1011.6
20260506113009 14 360 0.0 6.4 0.00 0.00 0.00 85 1011.5
20260506112512 13 360 3.2 12.9 0.00 0.00 0.00 85 1011.7
20260506112010 13 360 4.8 12.9 0.00 0.00 0.00 85 1011.5
20260506111508 13 360 0.0 4.8 0.00 0.00 0.00 85 1011.5
20260506111010 13 360 0.0 4.8 0.00 0.00 0.00 86 1011.5
20260506110510 13 360 0.0 4.8 0.00 0.00 0.00 86 1011.4
20260506110008 13 360 0.0 6.4 0.00 0.00 0.00 86 1011.6
20260506105505 13 360 1.6 6.4 0.00 0.00 0.00 86 1011.9
20260506105006 13 360 0.0 6.4 0.00 0.00 0.00 85 1011.8
20260506104504 12 360 0.0 6.4 0.00 0.00 0.00 85 1011.7
20260506104103 12 360 0.0 3.2 0.00 0.00 0.00 85 1011.6
20260506103505 12 360 0.0 1.6 0.00 0.00 0.00 85 1011.9
20260506103001 12 360 0.0 1.6 0.00 0.00 0.00 85 1011.9
20260506102603 12 360 0.0 1.6 0.00 0.00 0.00 85 1011.8
20260506102100 12 360 0.0 1.6 0.00 0.00 0.00 85 1011.7
20260506101600 12 360 0.0 3.2 0.00 0.00 0.00 85 1011.5
20260506101058 12 360 0.0 3.2 0.00 0.00 0.00 85 1011.4
20260506100557 12 360 0.0 4.8 0.00 0.00 0.00 84 1011.3
20260506100111 12 360 1.6 4.8 0.00 0.00 0.00 84 1011.4
20260506095558 12 360 0.0 4.8 0.00 0.00 0.00 84 1011.4
20260506095057 12 360 0.0 3.2 0.00 0.00 0.00 84 1011.3
20260506094554 12 360 0.0 6.4 0.00 0.00 0.00 83 1011.2
20260506094052 12 360 0.0 6.4 0.00 0.00 0.00 83 1011.2
20260506093554 12 360 1.6 4.8 0.00 0.00 0.00 83 1011.4
20260506093055 12 360 0.0 3.2 0.00 0.00 0.00 83 1011.4
20260506092553 13 360 0.0 1.6 0.00 0.00 0.00 83 1011.3
20260506092051 13 360 0.0 3.2 0.00 0.00 0.00 83 1011.3
20260506091554 13 360 0.0 3.2 0.00 0.00 0.00 83 1011.2
20260506091049 13 360 0.0 4.8 0.00 0.00 0.00 83 1011.3
20260506090550 13 360 0.0 6.4 0.00 0.00 0.00 83 1011.3
20260506090050 13 360 1.6 8.0 0.00 0.00 0.00 83 1011.4
20260506085548 13 360 3.2 8.0 0.00 0.00 0.00 82 1011.4
20260506085048 13 360 1.6 6.4 0.00 0.00 0.00 82 1011.4
20260506084548 13 360 0.0 4.8 0.00 0.00 0.00 82 1011.5
20260506084048 13 360 0.0 3.2 0.00 0.00 0.00 82 1011.4
20260506083547 13 360 0.0 4.8 0.00 0.00 0.00 82 1011.4
20260506083048 13 360 0.0 4.8 0.00 0.00 0.00 81 1011.7
20260506082546 13 360 0.0 4.8 0.00 0.00 0.00 81 1011.6
20260506082046 13 360 0.0 3.2 0.00 0.00 0.00 81 1011.7
20260506081548 13 360 0.0 3.2 0.00 0.00 0.00 80 1011.5
20260506081045 13 360 0.0 3.2 0.00 0.00 0.00 80 1011.5
20260506080545 13 360 0.0 1.6 0.00 0.00 0.00 80 1011.5
20260506073041 13 360 0.0 6.4 0.00 0.00 0.00 78 1011.3
20260506072541 13 360 1.6 4.8 0.00 0.00 0.00 77 1011.4
20260506072041 13 360 0.0 4.8 0.00 0.00 0.00 77 1011.4
20260506071539 14 360 0.0 0.0 0.00 0.00 0.00 76 1011.3
20260506071038 14 360 0.0 1.6 0.00 0.00 0.00 76 1011.3
20260506070541 14 360 0.0 1.6 0.00 0.00 0.00 76 1011.3
20260506062037 15 360 0.0 3.2 0.00 0.00 0.00 75 1011.0
20260506061534 15 360 0.0 3.2 0.00 0.00 0.00 74 1011.1
20260506061037 15 360 0.0 3.2 0.00 0.00 0.00 74 1011.2
20260506060532 15 360 0.0 1.6 0.00 0.00 0.00 74 1011.1
20260506051027 15 360 1.6 6.4 0.00 0.00 0.00 72 1011.3
20260506050528 15 360 3.2 6.4 0.00 0.00 0.00 72 1011.3
20260506045026 15 360 0.0 3.2 0.00 0.00 0.00 71 1011.3
20260506044531 15 360 0.0 3.2 0.00 0.00 0.00 71 1011.3
20260506044024 15 360 0.0 0.0 0.00 0.00 0.00 71 1011.4
20260506043524 16 360 0.0 0.0 0.00 0.00 0.00 71 1011.4
20260506043026 16 360 0.0 1.6 0.00 0.00 0.00 70 1011.4
20260506042526 16 360 0.0 1.6 0.00 0.00 0.00 70 1011.3
20260506042024 16 360 0.0 3.2 0.00 0.00 0.00 70 1011.4
20260506041525 16 360 0.0 4.8 0.00 0.00 0.00 69 1011.3
20260506041021 16 360 0.0 4.8 0.00 0.00 0.00 69 1011.4
20260506040524 16 360 1.6 4.8 0.00 0.00 0.00 69 1011.4
20260506040020 16 360 1.6 4.8 0.00 0.00 0.00 68 1011.3
20260506035524 16 360 1.6 8.0 0.00 0.00 0.00 68 1011.4
20260506035019 16 360 1.6 8.0 0.00 0.00 0.00 68 1011.3
20260506034520 16 360 0.0 8.0 0.00 0.00 0.00 67 1011.3